Current Version              Previous Version:    01  02  03  04  05  06  07  08  09  10  11  12  13  14  15  16  17  18  19  20  21  22  23  24  25  26  27  28  29  30  
   31  32  33  34  35  36  37  38  39  40  41  42  43  44  45  46  47  48  49  50  51  52  53  54  55  56  57  58  59  60  

[Printable]
749
ASUS44 KFWD 182015
RWRTX
NORTH TEXAS HOURLY WEATHER ROUNDUP
NATIONAL WEATHER SERVICE FORT WORTH TX
300 PM CDT FRI APR 18 2014

NOTE: "FAIR" INDICATES FEW OR NO CLOUDS BELOW 12,000 FEET WITH NO
SIGNIFICANT WEATHER AND/OR OBSTRUCTIONS TO VISIBILITY.

TXZ118-119-182100-
DALLAS/FORT WORTH METROPLEX

CITY           SKY/WX    TMP DP  RH WIND       PRES   REMARKS
DFW AIRPORT    MOSUNNY   75  49  39 CALM      30.17F
DALLAS LOVE    MOSUNNY   76  45  33 MISG      30.16F
FTW MEACHAM    MOSUNNY   73  51  46 E8        30.17F
DAL-EXECUTIVE  SUNNY     75  49  39 CALM      30.17F
FTW-ALLIANCE   MOSUNNY   72  51  47 VRB5      30.18F
FTW-NAS-JRB    MOSUNNY   75  47  36 VRB7      30.22F
FTW-SPINKS     MOSUNNY   73  48  40 E6        30.19F
ARLINGTON      SUNNY     74  48  39 VRB6      30.17F
GRAND PRAIRIE  SUNNY     73  46  38 SE7       30.19F
ADDISON        MOSUNNY   73  45  35 E7G14     30.18F
MESQUITE       SUNNY     72  46  40 NW6       30.17F
LANCASTER      SUNNY     73  47  39 N5        30.18F
$$

TXZ091>094-102>105-117-120-121-131>134-182100-
NORTH CENTRAL TEXAS

CITY           SKY/WX    TMP DP  RH WIND       PRES   REMARKS
SHRMAN/DENISON SUNNY     72  42  33 E6        30.20S
GAINESVILLE    SUNNY     72  46  38 E7        30.20F
BOWIE          CLOUDY    70  49  47 E3        30.19F
BRIDGEPORT     PTSUNNY   69  52  54 N5        30.20F
DECATUR        MOSUNNY   69  49  50 NE3       30.19F
DENTON         MOSUNNY   74  49  41 CALM      30.17F
MCKINNEY       SUNNY     73  47  39 VRB3      30.17F
GREENVILLE     SUNNY     73  41  31 N3        30.18F
ROCKWALL       SUNNY     76  48  36 N5        30.17F
TERRELL        SUNNY     74  45  35 NE7       30.18F
WAXAHACHIE     SUNNY     72  48  42 NE5       30.18F
CLEBURNE       PTSUNNY   72  52  49 E8        30.19F
GRANBURY       PTSUNNY   74  51  44 NE5       30.19F
$$

TXZ083>090-098>101-113>116-127>130-139>142-154-155-182100-
WESTERN NORTH TEXAS

CITY           SKY/WX    TMP DP  RH WIND       PRES   REMARKS
WICHITA FALLS  CLOUDY    67  51  56 SW10      30.19F
WF-KICKAPOO    CLOUDY    69  51  54 NW6G18    30.21F
VERNON         CLOUDY    64  51  61 S7        30.22F
ABILENE        PTSUNNY   71  49  45 N8        30.19F
ABILENE-DYESS  MOSUNNY   71  49  46 VRB5      30.18F
BRECKENRIDGE   CLOUDY    71  51  48 CALM      30.20S
GRAHAM         CLOUDY    70  50  49 E6        30.18F
MINERAL WELLS  CLOUDY    70  51  51 CALM      30.17F
STEPHENVILLE   PTSUNNY   71  50  47 SE5       30.21F
COMANCHE       PTSUNNY   69  51  52 E3        30.19F
BROWNWOOD      CLOUDY    70  50  49 W3        30.18F
COLEMAN        PTSUNNY   71  47  41 CALM      30.19F
BRADY          SUNNY     73  48  40 E5        30.17F
$$

TXZ143>147-156>162-174-175-182100-
CENTRAL TEXAS

CITY           SKY/WX    TMP DP  RH WIND       PRES   REMARKS
WACO           CLOUDY    73  53  49 VRB3      30.17F
WACO-TSTC      PTSUNNY   73  52  46 CALM      30.17F
WACO-MCGREGOR  PTSUNNY   73  54  49 E5        30.19F
HILLSBORO      MOSUNNY   73  51  45 N10       30.17F
CORSICANA      MOSUNNY   74  50  42 NE8       30.17F
MEXIA          MOSUNNY   72  53  50 NE5       30.16F
HEARNE         PTSUNNY   76  54  46 NE5       30.16F
CAMERON        MOSUNNY   76  55  48 NE5       30.16F
TEMPLE         MOSUNNY   75  54  46 CALM      30.17S
KILLEEN        PTSUNNY   72  54  53 E6        30.17F
KILLEEN-SKYLRK MOSUNNY   72  54  53 E8        30.17F
FORT HOOD      SUNNY     77  54  44 VRB6      30.16F
GATESVILLE     MOSUNNY   72  54  53 CALM      30.19F
HAMILTON       MOSUNNY   72  54  52 S6        30.19F
LAMPASAS       PTSUNNY   72  55  56 NE9       30.17F
$$

TXZ095>097-106>112-122>126-135>138-148>153-164>167-182100-
EAST TEXAS

CITY           SKY/WX    TMP DP  RH WIND       PRES   REMARKS
PARIS          SUNNY     73  46  38 E6        30.18F
SULPHUR SPRNGS SUNNY     73  46  38 E6        30.19F
CLARKSVILLE    SUNNY     74  43  33 CALM      30.18F
MOUNT PLEASANT SUNNY     73  49  41 NE6       30.18F
GILMER         SUNNY     75  48  38 E5        30.17F
MINEOLA        SUNNY     73  45  35 NE5       30.18F
TYLER          SUNNY     75  45  34 E7        30.16F
LONGVIEW       PTSUNNY   74  49  41 VRB7      30.16F
MARSHALL       MOSUNNY   72  50  45 NE6       30.18F
ATHENS         SUNNY     72  46  40 E8        30.15F
PALESTINE      SUNNY     76  45  32 E7        30.18F
JACKSONVILLE   SUNNY     71  46  41 NE7       30.18S
HENDERSON      MOSUNNY   72  46  38 NE8       30.16F
NACOGDOCHES    MOSUNNY   73  52  46 N10       30.16S
LUFKIN         PTSUNNY   79  50  36 NE10      30.14F
$$

SUPPLEMENTAL OBSERVATIONS (CENTRAL)

CITY           SKY/WX    TMP DP  RH WIND       PRES   REMARKS
CADDO GRASSLND   N/A     75  41  29 NE6         N/A
PAT MAYSE LAKE   N/A     72  39  30 NE2         N/A
PALESTINE        N/A     75  46  35 NE6         N/A
LAKE LIMESTONE   N/A     72  52  49 N8          N/A
MCGREGOR         N/A     75  52  43 E6          N/A
TEMPLE           N/A     75  54  46 E6G14       N/A
$$

SUPPLEMENTAL OBSERVATIONS (WEST)

CITY           SKY/WX    TMP DP  RH WIND       PRES   REMARKS
MILLERS CREEK    N/A     68  52  56 SE5         N/A
POSSUM KINGDOM   N/A     72  52  49 E6          N/A
LBJ GRASSLAND    N/A     73  52  46 SE6         N/A
GRANBURY         N/A     73  50  43 E3          N/A
COMANCHE         N/A     72  52  49 E6          N/A
HAMBY            N/A     70  50  49 E6G23       N/A
$$

SUPPLEMENTAL OBSERVATIONS (EAST)

CITY           SKY/WX    TMP DP  RH WIND       PRES   REMARKS
CLARKSVILLE      N/A     75  45  33 SE2G12      N/A
TEXARKANA        N/A     73  48  40 N7          N/A
LINDEN           N/A     75  50  41 E2G12       N/A
CADDO LAKE       N/A     75  48  38 E7          N/A
GILMER           N/A     75  48  38 E6          N/A
HENDERSON        N/A     73  50  43 NE9G17      N/A
LUFKIN           N/A     77  52  41 MISG        N/A
N SABINE NF      N/A     75  55  50 MISG        N/A
S SABINE NF      N/A     75  55  50 N5          N/A
$$

SUPPLEMENTAL OBSERVATIONS ARE A COLLECTION OF AUTOMATED INSTRUMENTS
THAT ARE MAINTAINED BY A VARIETY OF FEDERAL AND STATE AGENCIES.
CERTAIN ELEMENTS...SUCH AS HUMIDITY VALUES AND SUSTAINED WIND
SPEEDS...MAY BE APPROXIMATED.